Hlavní strana
METAR-TAF:

METAR-TAF

Letiště :

Salem-Leckrone Airport

Salem, Illinois, Spojené státy americké

zeměpisná šířka: 38-38-34N, zeměpisná délka: 088-57-51W, výška: 175 m

Aktuální stav počasí

Zpráva byla vytvořena před 7 minutami, v 19:35 UTC
Severoseverozápadní vítr 11 kt
Teplota 4°C
Vlhkost vzduchu 75%
Tlak 1023 hPa
Viditelnost: 16.1 km
Polojasno ve výšce 1900 ft
Oblačno až skoro zataženo ve výšce 7000 ft
Zataženo ve výšce 11000 ft

METAR: KSLO 181935Z AUTO 34011KT 10SM SCT019 BKN070 OVC110 04/00 A3022 RMK AO2 T00350001

Čas: 13:42 (19:42 UTC)


TAF: chybějící

Stav a předpovědi počasí z více než 4 000 letišť (zprávy METAR a TAF).

Červené a žluté tečky na mapě představují dostupné meteorologické stanice.

Když kurzor umístíte na tečku, zobrazí se název stanice.

Pak kliknutím zobrazíte stav a předpověď počasí.

Chcete-li změnit mapu, kliknutím na zelené tlačítko se znaménkem +mapu přiblížíte, kliknutím na zelené tlačítko se znaménkem – mapu oddálíte a kliknutím na zelené šipky přejdete na sousední mapy.


METAR-TAF: